Lexington Weather

Lexington, Massachusetts, USA

67°F
9/23/2021 4:04am 
  • Lexington Conditions: Mostly cloudy
  • Temperature: 66.6°F / 19.2°CWarmer 0.4°F than last hour.
  • Dew Point: 65.3°FIncreased 0.4°Fsince last hour.
  • Relative Humidity: 96
  • Wind: Calm, 10-min avg: Calm, gust: None
  • Barometer: 30.04 in Steady
  • Visibility: 10 miles
  • Rain Today: 0.00 in
  •   

Regional Weather Roundup
for Boston / Norton, MA

        
000
ASUS41 KBOX 220904
RWRBOX

REGIONAL WEATHER ROUNDUP
NATIONAL WEATHER SERVICE BOSTON/NORTON MA
500 AM EDT WED SEP 22 2021

NOTE:  "FAIR" INDICATES FEW OR NO CLOUDS BELOW 12,000 FEET WITH NO 
SIGNIFICANT WEATHER AND/OR OBSTRUCTIONS TO VISIBILITY.

MAZALL-221000-
EASTERN MASSACHUSETTS
  
CITY           SKY/WX    TMP DP  RH WIND       PRES   REMARKS
BOSTON         NOT AVBL                                               
BEVERLY        MOCLDY    65  65 100 SE7       30.24S                  
LAWRENCE       CLOUDY    68  66  93 E3        30.26S                  
BEDFORD        MOCLDY    68  66  93 S3        30.22F                  
BLUE HILL      NOT AVBL                                               
NORWOOD        CLOUDY    67  65  93 SE5       30.24S                  
MARSHFIELD     CLOUDY    64  64 100 CALM      30.25S                  
PLYMOUTH       CLOUDY    66  64  93 CALM      30.26S                  
TAUNTON        CLEAR     67  64  90 SE3       30.24F                  
NEW BEDFORD    MOCLDY    69  66  90 SE8       30.24F                  
$$

MAZALL-221000-
CAPE COD AND THE ISLANDS
  
CITY           SKY/WX    TMP DP  RH WIND       PRES   REMARKS
FALMOUTH       PTCLDY    66  64  94 S8        30.26S                  
HYANNIS        CLEAR     68  65  90 SE6       30.25S                  
CHATHAM        CLEAR     66  61  84 SE7       30.28S                  
PROVINCETOWN   CLEAR     65  63  93 S6        30.27S                  
NANTUCKET      CLOUDY    68  64  87 E9        30.26S                  
MARTHAS VNYRD  PTCLDY    69  65  86 SE9       30.25S                  
$$
 
MAZALL-221000-
CENTRAL AND WESTERN MASSACHUSETTS
  
CITY           SKY/WX    TMP DP  RH WIND       PRES   REMARKS
WORCESTER      CLOUDY    65  65 100 S7        30.25S FOG              
FITCHBURG      FOG       63  63 100 CALM      30.24S VSB 1/2          
ORANGE         CLOUDY    62  60  93 CALM      30.23F                  
SPRINGFIELD    NOT AVBL                                               
WESTFIELD      CLOUDY    63  63 100 N3        30.21F                  
NORTH ADAMS    CLOUDY    64  62  93 VRB3      30.19F                  
PITTSFIELD     CLOUDY    65  63  93 SE10      30.19F                  
$$
 
RIZALL-221000-
RHODE ISLAND
  
CITY           SKY/WX    TMP DP  RH WIND       PRES   REMARKS
PROVIDENCE     CLOUDY    69  68  96 SE6       30.24F                  
NEWPORT        CLOUDY    69  67  93 SE8       30.24S                  
BLOCK ISLAND   CLOUDY    70  66  87 S13G18    30.23F                  
SMITHFIELD     CLOUDY    67  67 100 VRB5      30.25S                  
WESTERLY       CLOUDY    68  68 100 E5        30.22F                  
$$
 
CTZALL-221000-
CONNECTICUT
  
CITY           SKY/WX    TMP DP  RH WIND       PRES   REMARKS
BRADLEY INTL   CLOUDY    63  63 100 N5        30.21F                  
HARTFORD       CLOUDY    67  63  87 CALM      30.20F                  
BRIDGEPORT     MOCLDY    72  69  90 SE8       30.18F                  
DANBURY        CLOUDY    71  68  90 SE6       30.19F                  
GROTON         CLOUDY    71  68  90 E8        30.20F                  
NEW HAVEN      CLOUDY    74  71  91 SE5       30.19F                  
CHESTER        FOG       68  68 100 VRB3      30.22S VSB<1/4          
MERIDEN        CLOUDY    66  63  90 CALM      30.20F                  
WILLIMANTIC    CLOUDY    64  63  96 CALM      30.22F                  
OXFORD         CLOUDY    68  68 100 SE8       30.22S                  
$$

MEZ002-015-021-024-NHZ003-005-008-011-012-014-VTZ005-008-221000-
NORTHERN NEW ENGLAND
  
CITY           SKY/WX    TMP DP  RH WIND       PRES   REMARKS
PORTLAND ME    CLOUDY    64  64 100 CALM      30.26S FOG              
BANGOR ME      CLOUDY    62  61  96 SE7       30.27F                  
CONCORD NH     FOG       61  61 100 CALM      30.24S VSB 3/4          
MANCHESTER NH  CLOUDY    65  62  90 SE3       30.22F FOG              
NASHUA NH      CLOUDY    62 N/A N/A CALM      30.24F HAZE             
PORTSMOUTH NH  CLOUDY    63  63 100 CALM      30.25F FOG              
JAFFREY NH     CLOUDY    67  66  97 S8        30.24F                  
KEENE NH       LGT RAIN  60  59  96 CALM      30.22F                  
BURLINGTON VT  PTCLDY    63  57  81 S5        30.15F                  
MT. WASHINGTON FOG       46  46 100 SW43G53     N/A  VSB 0            
$$

NYZ052-076-221000-
EASTERN NEW YORK
  
CITY           SKY/WX    TMP DP  RH WIND       PRES   REMARKS
ALBANY         CLOUDY    63  62  97 S5        30.16F                  
NEW YORK CITY  CLOUDY    73  68  84 SE7       30.15F                  
$$
 
ANZALL-221000-
MARINE OBSERVATIONS
  
STATION/POSITION TIME  TEMP    WIND        PRES    VSBY  WAVE
                       AIR SEA DIR/SP/G                  HT/PER
                 (UTC) (F)     (DEG/KT/KT) (MB)    (MI)  (FT/S)
BOSTON BUOY      0840      65  170/  8/ 10 1024.7S
BUZZARDS BAY     0800          130/ 15/ 16 1024.9F
NANTUCKET SOUND  0840   71 71  140/ 14/ 16 1024.4F
MASS BAY-STELLWA 0804   66     170/ 10/ 12 1023.9F  1 7/8  2/ 5
ISLE OF SHOALS   0800   66     180/  9/ 10 1024.0F
S OF BLOCK IS    0826      70                N/A           4/10
$$

......................KEY.........................
  SKY/WX - SKY CONDITION/PRESENT WEATHER
  TMP    - TEMPERATURE IN FAHRENHEIT
  DWPT   - DEWPOINT IN FAHRENHEIT
  RH     - RELATIVE HUMIDITY IN PERCENT
  WIND   - DIRECTION AND SPEED IN MPH
  PRES   - MEAN SEA LEVEL PRESSURE IN INCHES OF HG
  WCI    - WIND CHILL INDEX
  VSB    - VISIBILITY IN MILES
  HX     - HEAT INDEX
  TC     - TEMPERATURE IN CELSIUS
  VRB    - VARIABLE WIND DIRECTION
  N/A    - NOT AVAILABLE
  
      

Other recent Regional Weather Roundups

Thu Sep 23, 3:04am

Thu Sep 23, 2:04am

Thu Sep 23, 1:04am

Thu Sep 23, 12:04am

Wed Sep 22, 11:04pm

Wed Sep 22, 10:04pm

Wed Sep 22, 9:04pm

Wed Sep 22, 8:04pm

Wed Sep 22, 7:04pm

Wed Sep 22, 6:04pm

Wed Sep 22, 5:04pm

Wed Sep 22, 4:04pm

Wed Sep 22, 3:04pm

Wed Sep 22, 2:04pm

Wed Sep 22, 1:04pm

Wed Sep 22, 12:05pm

Wed Sep 22, 11:04am

Wed Sep 22, 10:04am

Wed Sep 22, 9:04am

Wed Sep 22, 8:04am

Wed Sep 22, 7:04am

Wed Sep 22, 6:04am

Wed Sep 22, 4:04am

Wed Sep 22, 3:04am

Wed Sep 22, 2:04am

Wed Sep 22, 1:04am

Wed Sep 22, 12:04am

Tue Sep 21, 11:04pm

Tue Sep 21, 10:04pm

Tue Sep 21, 9:04pm

Tue Sep 21, 8:04pm

Tue Sep 21, 7:04pm

Tue Sep 21, 6:04pm

Tue Sep 21, 5:04pm

Tue Sep 21, 4:04pm

Tue Sep 21, 3:04pm

Tue Sep 21, 2:04pm

Tue Sep 21, 1:04pm

Tue Sep 21, 12:04pm

Tue Sep 21, 11:04am

Tue Sep 21, 10:04am

Tue Sep 21, 9:04am

Tue Sep 21, 8:04am

Tue Sep 21, 7:04am

Tue Sep 21, 6:04am

Tue Sep 21, 5:04am

Tue Sep 21, 4:04am

Tue Sep 21, 3:04am

Tue Sep 21, 2:04am

Tue Sep 21, 1:04am

Tue Sep 21, 12:04am

Mon Sep 20, 11:04pm

Mon Sep 20, 10:04pm

Mon Sep 20, 9:04pm

Mon Sep 20, 8:04pm

Mon Sep 20, 7:04pm

Mon Sep 20, 6:04pm

Mon Sep 20, 5:04pm

Mon Sep 20, 4:04pm

Mon Sep 20, 3:04pm

Mon Sep 20, 2:04pm

Mon Sep 20, 1:04pm

Mon Sep 20, 12:04pm

Mon Sep 20, 11:04am

Mon Sep 20, 10:04am

Mon Sep 20, 9:04am

Mon Sep 20, 7:04am

Mon Sep 20, 6:04am

Mon Sep 20, 5:04am

Mon Sep 20, 4:04am

Mon Sep 20, 3:04am

Mon Sep 20, 2:04am

Mon Sep 20, 1:04am

Mon Sep 20, 12:04am

Sun Sep 19, 11:04pm

Sun Sep 19, 10:04pm

Sun Sep 19, 9:04pm

Sun Sep 19, 8:04pm

Sun Sep 19, 7:04pm

Sun Sep 19, 6:04pm

Sun Sep 19, 5:04pm

Sun Sep 19, 4:04pm

Sun Sep 19, 3:04pm

Sun Sep 19, 2:05pm

Sun Sep 19, 1:04pm

Sun Sep 19, 12:04pm

Sun Sep 19, 11:04am

Sun Sep 19, 10:05am

Sun Sep 19, 9:04am

Sun Sep 19, 8:04am

Sun Sep 19, 7:04am

Sun Sep 19, 6:04am

Sun Sep 19, 5:04am

Sun Sep 19, 4:04am

Sun Sep 19, 3:04am

Sun Sep 19, 2:04am

Sun Sep 19, 1:04am

Sun Sep 19, 12:04am

Sat Sep 18, 11:05pm

Sat Sep 18, 10:04pm

Sat Sep 18, 9:04pm

Sat Sep 18, 8:04pm

Sat Sep 18, 7:04pm

Sat Sep 18, 6:04pm

Sat Sep 18, 5:04pm

Sat Sep 18, 4:04pm

Sat Sep 18, 3:04pm

Sat Sep 18, 2:04pm

Sat Sep 18, 1:04pm

Sat Sep 18, 12:04pm

Sat Sep 18, 11:04am

Sat Sep 18, 10:04am

Sat Sep 18, 9:04am

Sat Sep 18, 8:04am

Sat Sep 18, 7:04am

Sat Sep 18, 6:04am

Sat Sep 18, 5:04am

Sat Sep 18, 4:04am

Sat Sep 18, 3:04am

Sat Sep 18, 2:04am

Sat Sep 18, 1:04am

Sat Sep 18, 12:04am

Fri Sep 17, 11:04pm

Fri Sep 17, 10:04pm

Fri Sep 17, 9:04pm

Fri Sep 17, 8:04pm

Fri Sep 17, 7:04pm

Fri Sep 17, 6:04pm

Fri Sep 17, 5:04pm

Fri Sep 17, 4:04pm

Fri Sep 17, 3:04pm

Fri Sep 17, 2:04pm

Fri Sep 17, 1:04pm

Fri Sep 17, 12:05pm

Fri Sep 17, 11:04am

Fri Sep 17, 10:04am

Fri Sep 17, 9:04am

Fri Sep 17, 8:04am

Fri Sep 17, 7:04am

Fri Sep 17, 6:04am

Fri Sep 17, 5:04am

Fri Sep 17, 4:04am

Fri Sep 17, 3:04am

Fri Sep 17, 2:04am

Fri Sep 17, 1:04am

Fri Sep 17, 12:04am

Thu Sep 16, 11:04pm

Thu Sep 16, 10:04pm

Thu Sep 16, 9:04pm

Thu Sep 16, 8:04pm

Thu Sep 16, 7:04pm

Thu Sep 16, 6:04pm

Thu Sep 16, 5:04pm

Thu Sep 16, 4:04pm

Thu Sep 16, 3:04pm

Thu Sep 16, 2:04pm

Thu Sep 16, 1:05pm

Thu Sep 16, 12:04pm

Thu Sep 16, 11:05am

Thu Sep 16, 10:05am

Thu Sep 16, 9:04am

Thu Sep 16, 8:04am

Thu Sep 16, 7:04am

Thu Sep 16, 6:04am

Thu Sep 16, 5:04am

Thu Sep 16, 4:04am

Meta data:

ID: 8ede3be4-a6b1-4b29-ab75-2978ab9f1715
Link: https://api.weather.gov/products/8ede3be4-a6b1-4b29-ab75-2978ab9f1715